CAPE
1180 1288 2012 2054 2125 1900 1348 1314 1732 1703 1954 1974 1982 1853 1719 1680 1755 1764 1710 1403 1477 1365 1310 1264 1308 1217 1201 985 802 590 592 411 1015 586 895 810 727 357 175 361 585 159 0
1422 1830 2059 2117 2297 2263 1605 1366 1580 1717 1815 1465 2073 2034 2039 1936 2011 2231 1954 1410 1512 1712 1176 1383 1310 1199 1250 1056 652 479 339 463 287 734 787 802 652 304 103 332 0 99 352
1427 1948 2037 2114 2378 2333 1830 1587 1629 1696 1853 1750 1782 1850 1906 1946 1989 1967 1855 1721 1483 1785 1602 1388 1390 1268 937 697 623 621 451 918 758 711 768 407 306 412 88 13 73 0 221
1507 1837 1971 2074 2248 2233 2019 1792 1780 1756 1834 1867 1856 1477 1789 1254 1409 2014 1978 1702 1788 1809 1547 1264 1557 1347 1004 548 926 740 971 866 748 908 336 325 523 604 105 157 847 563 13
1528 1832 1916 2153 2172 2091 2029 1927 2001 1861 1767 1702 1943 1832 1724 1835 1713 1082 1414 1672 1534 1659 1817 1411 1665 1098 1077 795 925 678 836 663 446 299 322 324 269 345 32 207 408 743 483
1575 1821 2325 2089 2012 2018 2024 2020 2009 1939 1591 1704 1820 1853 1688 1829 2017 1826 1299 1054 1133 1612 1627 1480 973 745 1346 940 670 388 147 348 698 226 90 445 404 0 64 636 555 0 533
1470 1949 2000 2018 2052 2096 2006 2015 2008 1797 1838 1776 1849 1840 1808 1868 1950 1687 1852 1687 1350 1060 1401 1250 1055 1156 1123 813 361 162 131 328 517 241 290 346 391 319 571 828 383 281 0
1657 1935 1935 2017 1884 1966 1980 2032 2061 1956 1990 2065 2048 2056 1836 1700 1270 1594 1683 1636 1791 1467 1124 1147 1383 1333 1160 792 269 240 254 374 481 228 247 108 517 712 467 1009 360 258 640
1763 1760 2054 2005 1967 2062 2127 2059 1982 1979 2137 2185 2165 2062 2000 1638 1636 1484 1593 1410 1706 1676 1228 848 936 1363 1181 1186 598 138 15 209 391 456 221 73 302 749 526 298 474 56 41
1460 1564 1598 1744 1868 1878 2001 2097 1926 1891 1908 2078 1997 1970 1751 1761 1646 1615 1370 1201 1292 1211 1764 1529 982 985 1078 1038 978 418 21 0 330 212 261 108 252 492 595 454 407 447 114
1119 1332 1504 1442 1704 1576 1427 1623 1764 1810 1979 2065 2078 2068 2003 1710 1638 1609 1569 1189 1326 1280 1115 1230 1341 1064 783 954 970 899 143 6 16 113 208 114 53 131 540 49 512 370 139
605 817 1098 1135 1188 1368 1513 1437 1548 1551 1678 1666 1731 1971 2008 1617 1382 1221 1356 1252 1218 1458 1317 1129 1166 1015 894 489 276 699 301 0 14 24 189 261 34 101 445 537 437 553 505
752 715 937 1013 1095 1042 1171 1321 1455 1250 1420 1501 1524 1316 1603 1248 1044 1242 1073 1035 999 1588 1223 1189 853 757 731 640 470 191 239 224 72 0 204 397 54 62 583 733 819 420 333
1136 960 1074 1165 1120 1156 1356 1414 1497 1047 1090 828 1177 1328 1092 1042 750 730 891 870 672 937 629 485 358 163 76 55 66 163 196 193 147 97 257 539 267 20 293 520 699 821 372
1466 1480 1457 1511 1379 1403 1419 1571 1420 1184 930 654 502 548 655 522 486 391 478 459 397 475 468 148 71 65 0 0 0 52 102 209 407 244 19 231 600 152 132 365 622 777 816
1540 1612 1592 1618 1558 1565 1399 1149 750 684 276 192 185 148 245 193 333 285 280 296 240 268 265 126 50 22 0 0 0 11 90 172 260 351 163 144 666 501 359 314 429 548 901
1514 1618 1676 1743 1774 1633 1252 818 453 271 367 119 145 111 129 82 112 206 135 141 95 78 31 10 1 0 0 0 0 0 60 263 345 356 344 271 362 718 526 407 257 226 678
1501 1671 1747 1853 1896 1597 1191 1096 830 509 290 191 121 84 66 40 238 232 114 53 49 40 16 0 0 0 0 0 0 0 103 247 371 418 311 367 360 579 657 595 419 308 295
1393 1662 1711 1825 1919 1760 1540 1038 731 171 155 131 99 49 25 195 194 124 77 19 12 24 31 10 0 0 0 58 41 89 156 220 267 453 316 366 366 438 543 660 339 375 206
1391 1639 1734 1933 1913 1679 1197 870 358 135 156 51 8 5 2 8 86 113 58 12 18 1 0 2 16 11 19 56 71 56 19 33 152 173 162 329 447 494 460 510 534 594 497
1527 1580 1762 1900 1942 1636 1451 1293 755 2 81 59 30 28 14 16 15 72 42 38 58 81 119 93 36 47 43 14 4 39 30 34 66 96 122 206 175 370 506 573 406 385 397
1611 1764 1837 1975 1776 1695 1639 1435 984 12 0 0 0 10 71 45 75 68 40 72 148 152 140 117 68 52 0 0 0 0 0 0 0 4 50 123 198 276 296 346 295 286 135
1895 1903 1987 1990 1805 1699 1507 1307 755 170 0 2 103 273 378 172 101 306 265 206 166 130 96 86 64 36 17 0 0 0 0 0 0 0 0 1 57 119 165 192 305 267 180
1981 2068 2041 1885 1764 1612 1487 1171 1036 400 0 27 296 547 845 603 476 428 279 159 104 45 32 41 57 20 0 0 0 0 0 0 0 0 0 0 0 25 58 105 117 106 34
2103 1932 1722 732 1204 1613 1428 1215 524 103 156 529 580 794 652 428 337 234 135 52 20 6 3 18 25 1 1 0 4 1 0 0 0 0 0 2 0 0 28 47 42 52 0
2390 1985 1632 545 1314 1625 1398 941 493 41 579 703 682 473 418 365 235 130 24 0 0 0 0 0 35 32 21 8 11 25 36 2 0 0 15 26 16 3 0 1 12 0 0
CIN
-30 -38 -2 -7 -9 -17 -47 -50 -19 -19 -2 -0 -0 -1 -4 -3 -0 -0 -0 -5 -0 -0 -0 -0 -0 -0 -0 -0 -0 -0 -0 -0 -0 -0 -0 -0 -0 -0 -1 -0 -0 -6 -0
-49 -18 -7 -6 -0 -0 -35 -57 -36 -19 -8 -22 -0 -0 -0 -0 -0 -0 -0 -2 -0 -0 -0 -0 -0 -0 -0 -0 -0 -0 -2 -0 -1 -0 -0 -0 -0 -0 -5 -0 -0 -0 -1
-67 -19 -14 -6 -0 -2 -30 -46 -34 -23 -9 -9 -5 -2 -0 -0 -0 -0 -0 -0 -0 -0 -0 -0 -0 -0 -0 -0 -0 -0 -0 -0 -0 -0 -0 -7 -5 -0 -45 -10 -5 -0 -10
-65 -38 -20 -14 -7 -11 -19 -29 -26 -19 -12 -8 -4 -19 -6 -25 -14 -0 -0 -0 -0 -0 -0 -0 -0 -0 -0 -0 -0 -0 -0 -6 -0 -0 -17 -10 -0 -0 -38 -16 -0 -1 -11
-66 -45 -32 -17 -19 -26 -20 -19 -5 -12 -13 -17 -4 -11 -11 -2 -2 -19 -6 -0 -0 -0 -0 -0 -0 -0 -0 -0 -0 -3 -1 -1 -4 -13 -18 -26 -15 -10 -15 -17 -0 -0 -0
-67 -44 -13 -25 -33 -22 -18 -11 -6 -6 -14 -11 -10 -11 -17 -6 -0 -0 -6 -11 -10 -0 -0 -0 -1 -12 -0 -0 -4 -5 -21 -11 -1 -23 -34 -15 -22 -0 -21 -0 -1 -0 -1
-106 -52 -43 -38 -33 -22 -18 -9 -2 -9 -6 -10 -3 -10 -9 -4 -0 -2 -0 -0 -2 -10 -0 -1 -0 -2 -0 -5 -9 -13 -16 -6 -6 -34 -21 -17 -14 -13 -5 -0 -8 -9 -0
-94 -64 -50 -38 -42 -28 -21 -11 -0 -0 -0 -0 -0 -0 -11 -18 -30 -4 -2 -3 -0 -0 -3 -5 -2 -1 -6 -11 -21 -15 -10 -7 -16 -44 -23 -32 -10 -1 -5 -0 -17 -24 -0
-68 -68 -35 -37 -34 -23 -17 -15 -12 -4 -0 -0 -0 -0 -0 -13 -15 -11 -2 -9 -0 -0 -8 -26 -20 -3 -9 -6 -18 -28 -5 -11 -13 -34 -41 -32 -17 -1 -5 -19 -9 -23 -26
-78 -81 -79 -62 -49 -45 -35 -16 -26 -18 -11 -1 -0 -0 -2 -0 -6 -9 -8 -7 -3 -3 -0 -1 -14 -13 -14 -11 -12 -29 -29 -0 -25 -53 -52 -34 -25 -9 -5 -11 -12 -11 -33
-123 -105 -76 -86 -51 -64 -80 -56 -42 -26 -11 -3 -0 -0 -0 -2 -6 -5 -4 -13 -3 -1 -2 -0 -0 -8 -26 -14 -15 -16 -33 -46 -55 -58 -52 -46 -36 -37 -15 -33 -6 -11 -33
-189 -186 -129 -116 -100 -76 -60 -66 -53 -43 -25 -19 -5 -1 -1 -5 -11 -17 -15 -16 -13 -0 -0 -0 -1 -5 -8 -25 -53 -27 -37 -0 -83 -32 -52 -43 -53 -42 -21 -20 -13 -2 -5
-161 -207 -166 -139 -114 -104 -81 -74 -65 -64 -39 -24 -10 -12 -7 -19 -25 -14 -22 -29 -17 -1 -1 -2 -19 -27 -37 -49 -54 -84 -73 -53 -62 -0 -48 -40 -66 -64 -28 -22 -9 -12 -12
-124 -150 -142 -140 -126 -107 -72 -65 -59 -76 -59 -69 -42 -22 -17 -22 -45 -46 -35 -29 -29 -24 -45 -64 -70 -105 -138 -150 -139 -129 -105 -91 -89 -78 -64 -33 -47 -28 -43 -35 -28 -6 -14
-104 -101 -106 -119 -119 -104 -86 -66 -61 -62 -45 -23 -28 -35 -35 -41 -50 -69 -65 -49 -57 -62 -58 -102 -134 -150 -0 -0 -0 -126 -113 -79 -59 -65 -103 -54 -41 -51 -44 -25 -24 -25 -6
-120 -91 -95 -97 -107 -100 -96 -86 -99 -93 -85 -93 -63 -61 -61 -72 -65 -67 -67 -73 -84 -79 -73 -97 -113 -158 -0 -0 -0 -61 -105 -97 -67 -52 -63 -67 -31 -42 -40 -33 -25 -22 -13
-124 -98 -89 -90 -84 -76 -78 -104 -129 -117 -80 -98 -50 -46 -56 -85 -58 -50 -63 -76 -104 -123 -145 -162 -12 -0 -0 -0 -0 -0 -121 -78 -67 -50 -47 -44 -54 -30 -35 -38 -39 -49 -33
-130 -105 -85 -96 -80 -72 -96 -104 -106 -112 -104 -108 -26 -32 -52 -75 -39 -42 -54 -86 -110 -136 -176 -0 -0 -0 -0 -0 -0 -0 -97 -82 -70 -52 -44 -37 -44 -47 -36 -39 -33 -43 -39
-145 -106 -90 -101 -84 -81 -99 -124 -134 -231 -207 -155 -76 -49 -67 -27 -31 -44 -61 -117 -158 -157 -150 -173 -0 -9 -26 -67 -115 -87 -71 -71 -69 -53 -48 -40 -41 -40 -53 -42 -30 -33 -41
-164 -121 -97 -94 -89 -108 -140 -162 -226 -254 -216 -248 -258 -183 -27 -105 -54 -56 -70 -116 -132 -36 -0 -66 -133 -169 -144 -98 -75 -86 -140 -124 -89 -73 -57 -38 -40 -38 -45 -40 -37 -21 -27
-163 -143 -133 -100 -105 -126 -137 -102 -118 -38 -242 -222 -215 -173 -141 -155 -168 -77 -82 -92 -90 -71 -70 -90 -119 -102 -106 -145 -156 -92 -109 -107 -95 -79 -57 -56 -48 -40 -28 -33 -56 -45 -46
-132 -136 -153 -114 -115 -139 -121 -100 -108 -32 -0 -0 -0 -244 -149 -141 -91 -76 -92 -73 -48 -57 -60 -71 -83 -78 -19 -0 -0 -14 -0 -0 -0 -18 -108 -87 -68 -66 -51 -38 -36 -46 -103
-134 -130 -117 -109 -104 -138 -126 -140 -186 -268 -0 -48 -154 -81 -63 -87 -91 -45 -49 -45 -42 -45 -44 -62 -73 -83 -77 -0 -0 -0 -0 -0 -0 -0 -0 -59 -120 -100 -76 -66 -46 -52 -79
-145 -139 -145 -108 -83 -149 -140 -143 -133 -182 -0 -219 -93 -46 -21 -39 -31 -36 -37 -41 -44 -57 -47 -53 -55 -50 -0 -0 -0 -0 -0 -0 -0 -0 -0 -0 -0 -96 -83 -60 -64 -54 -84
-154 -143 -140 -177 -160 -133 -148 -148 -209 -274 -204 -81 -50 -31 -34 -50 -37 -36 -64 -95 -90 -103 -58 -53 -52 -4 -5 -4 -86 -25 -0 -0 -0 -0 -0 -86 -0 -0 -58 -60 -58 -23 -0
-168 -143 -136 -41 -88 -132 -154 -200 -208 -274 -101 -36 -26 -37 -53 -56 -61 -76 -77 -0 -0 -0 -2 -2 -23 -43 -30 -32 -54 -48 -29 -7 -0 -0 -79 -76 -54 -28 -0 -101 -45 -0 -0
Wind_Speed
22 22 22 22 22 21 22 21 20 20 21 21 21 21 21 20 20 18 17 16 14 12 13 10 10 17 17 17 14 17 22 23 23 27 28 26 27 28 29 28 28 29 29
23 24 23 22 21 21 20 18 18 18 18 18 19 20 20 21 20 18 17 14 13 11 13 14 14 13 15 15 13 20 24 25 26 26 25 25 23 23 27 28 28 29 28
24 24 23 22 21 20 19 19 19 19 18 16 17 19 20 21 21 19 12 6 7 14 16 14 13 13 15 13 17 19 23 26 27 25 23 26 27 26 26 28 28 28 28
23 24 24 22 21 20 20 20 19 19 17 15 16 17 18 19 19 21 17 13 14 21 13 12 13 11 12 12 16 18 23 25 24 24 18 4 27 27 26 26 26 26 26
24 24 23 22 21 20 20 20 20 20 19 17 17 18 16 16 16 16 16 16 10 11 15 12 8 6 6 7 4 23 24 23 21 24 22 25 26 26 26 26 25 25 25
24 23 22 21 20 19 18 19 20 20 19 17 17 18 17 16 12 14 12 12 10 9 11 14 9 6 7 8 13 17 22 24 24 24 23 25 25 25 25 24 24 24 24
24 23 22 21 20 18 18 18 18 17 16 14 13 13 14 14 15 14 14 14 11 11 10 9 9 7 7 11 13 14 18 21 17 21 24 24 24 23 23 23 23 23 23
23 23 22 21 20 18 17 17 16 16 14 13 13 11 11 10 11 11 13 13 15 14 9 9 9 8 7 10 13 15 17 17 14 8 23 23 23 21 21 22 22 22 22
22 22 21 19 19 18 16 16 16 15 14 13 12 11 11 11 10 10 10 11 12 14 10 9 11 13 17 14 11 14 18 16 14 16 23 22 22 20 19 20 20 20 20
23 21 20 19 19 17 16 16 15 14 13 12 11 10 11 10 9 9 9 10 10 10 11 8 11 15 16 18 16 15 17 16 14 14 18 19 20 18 17 18 19 18 18
21 20 19 18 18 19 20 17 15 12 12 12 10 9 10 8 8 10 9 8 11 11 10 10 14 15 15 18 18 19 16 15 14 13 11 16 15 16 14 15 16 16 16
20 19 19 18 17 18 17 16 14 13 9 8 6 6 6 6 6 7 7 8 7 11 12 12 13 15 17 18 19 19 16 14 15 15 14 7 10 12 12 11 13 14 14
19 18 18 17 17 17 16 15 13 11 11 4 4 4 7 7 8 13 8 16 8 8 12 12 12 14 16 18 19 18 17 16 14 15 13 7 7 8 9 10 10 10 12
18 17 17 16 16 16 16 14 11 9 9 10 7 6 3 9 12 13 17 12 7 7 7 9 8 12 17 18 18 18 19 17 16 15 14 13 3 4 5 6 7 7 7
16 17 16 17 17 15 14 11 9 6 7 1 3 18 13 9 8 12 9 12 11 12 9 9 13 12 15 20 21 20 21 20 18 17 15 13 6 3 2 2 3 3 4
15 16 17 16 15 13 12 10 7 5 3 8 9 18 23 18 10 10 12 10 12 14 13 14 15 18 21 23 25 22 18 22 21 18 18 18 10 6 3 2 1 1 1
14 15 16 15 14 12 10 10 9 6 2 7 9 11 30 23 20 13 12 15 16 16 19 21 23 21 23 27 30 27 19 19 18 15 11 9 15 7 4 2 1 1 1
14 15 15 15 14 12 10 12 13 13 11 10 11 18 28 29 22 7 11 15 17 15 16 23 22 26 30 28 27 24 17 18 18 15 12 15 16 14 5 3 4 3 2
14 15 16 14 13 12 13 14 17 17 18 19 16 12 9 25 10 7 9 18 24 25 24 21 18 23 20 20 19 23 20 19 19 19 17 15 14 13 10 8 5 5 4
14 15 15 14 13 12 13 15 18 19 19 18 19 18 12 7 8 11 17 22 23 24 25 20 21 14 10 20 21 22 20 20 16 18 19 19 16 9 10 10 12 13 9
14 14 14 13 13 12 13 14 14 16 17 17 17 17 16 12 7 21 24 23 22 23 22 20 18 14 21 18 22 21 20 19 19 20 19 21 18 11 11 14 15 17 18
14 14 13 13 13 13 12 13 14 14 14 16 16 15 15 14 10 19 22 21 20 18 19 17 16 21 20 16 17 18 20 21 19 20 22 23 24 19 14 15 14 9 11
12 12 12 10 11 11 11 13 14 15 14 14 13 14 13 12 12 14 16 17 18 17 18 20 23 21 23 18 14 15 16 17 16 18 19 20 22 21 18 17 13 12 10
10 9 9 15 12 10 10 11 11 11 11 11 12 13 14 12 13 13 14 15 17 18 19 20 21 21 18 18 19 12 15 15 18 20 18 19 19 20 17 14 17 17 16
8 9 10 17 17 11 10 10 10 10 10 11 11 12 12 12 13 13 14 14 16 17 18 19 18 18 16 17 14 17 17 13 11 10 18 17 18 18 17 14 13 16 14
4 8 10 14 17 9 10 10 10 10 10 9 10 9 10 10 11 13 15 17 17 16 16 16 16 16 16 16 16 15 11 13 9 9 12 12 12 16 16 16 13 11 12
Wind_Direction
120 111 111 105 99 97 96 88 81 78 76 73 72 73 76 77 77 70 65 59 51 43 44 19 20 62 62 62 48 62 80 83 81 97 98 86 91 93 111 97 98 109 105
110 118 114 108 101 98 94 84 80 75 73 67 69 72 76 83 75 67 64 50 45 32 44 47 48 40 48 51 49 77 89 92 96 93 86 92 76 77 97 123 113 116 98
111 118 117 114 105 101 95 91 91 86 79 68 65 68 75 81 83 71 41 351 1 46 56 48 47 48 50 45 69 78 88 98 99 92 81 135 106 98 91 107 107 111 112
111 115 121 117 109 106 104 102 99 94 81 70 66 73 80 74 68 90 67 42 49 94 42 40 48 34 40 50 72 79 95 99 95 106 65 255 117 110 101 104 101 97 115
114 119 120 116 114 111 109 109 110 107 99 87 85 84 80 74 67 55 50 61 10 21 53 37 2 322 354 19 289 106 108 100 88 119 158 100 124 113 108 111 103 113 112
120 121 120 118 115 109 105 109 116 112 108 93 94 94 92 88 52 54 39 29 0 347 29 49 12 310 275 252 219 202 107 126 136 139 155 137 124 114 111 114 107 114 123
122 127 124 120 116 110 108 112 114 105 98 88 80 81 83 82 84 72 62 71 36 20 6 359 6 330 293 242 231 226 202 180 199 184 151 139 142 114 114 119 110 118 113
122 125 125 121 117 110 109 113 109 107 99 92 92 77 76 61 57 44 57 64 86 79 327 317 310 316 307 267 249 234 214 213 227 276 129 133 140 118 110 118 117 117 120
126 126 126 123 121 116 110 115 114 114 107 99 93 87 92 86 70 51 34 45 67 92 68 328 287 264 232 254 274 251 225 236 247 232 153 143 145 120 115 121 123 117 118
131 132 130 132 132 123 123 124 123 119 115 109 100 92 97 86 69 51 4 350 359 30 65 17 302 265 251 242 252 258 249 255 267 258 115 128 134 126 116 125 130 122 119
130 131 137 134 139 142 146 138 131 121 122 120 104 98 96 79 71 87 52 27 322 327 339 341 289 275 272 254 255 251 269 270 272 287 79 127 120 122 111 113 122 123 122
132 133 135 136 138 143 146 142 137 136 113 108 89 79 70 54 22 44 19 54 27 320 312 307 301 287 268 271 265 264 275 287 287 284 297 67 103 112 110 105 117 124 126
134 129 132 134 137 141 144 143 137 133 141 88 17 357 322 323 318 298 327 237 86 352 315 312 311 298 283 278 269 274 280 286 297 296 306 350 107 108 113 112 114 115 126
131 134 133 131 131 141 141 137 137 140 148 150 143 134 342 303 297 295 276 296 336 359 11 348 346 323 292 289 288 280 279 289 293 297 299 312 75 90 97 100 112 111 111
130 138 138 139 141 140 142 129 129 139 168 51 222 290 294 299 305 299 313 296 300 303 333 333 314 328 316 293 277 278 276 283 291 294 300 309 323 336 11 52 87 107 116
131 145 141 142 143 134 136 124 118 110 104 360 325 297 272 280 291 292 300 304 300 297 306 312 312 304 294 287 274 281 291 280 287 292 290 298 311 312 310 346 63 0 135
140 144 145 139 135 131 120 101 84 83 116 32 353 307 236 269 275 295 289 285 291 295 289 285 287 298 298 290 269 274 289 291 296 300 310 316 305 307 213 243 285 330 173
135 143 145 136 131 125 100 78 67 58 60 71 152 181 209 232 250 298 283 285 290 303 305 289 295 294 284 298 264 274 291 297 301 304 306 305 305 307 281 248 228 281 320
139 141 147 137 129 103 86 68 54 61 67 68 76 70 108 226 285 314 301 276 265 270 281 300 310 309 309 298 287 276 289 296 298 301 299 303 307 304 299 291 234 239 258
135 140 141 130 119 95 81 71 51 56 72 79 73 86 79 284 308 301 283 281 284 272 278 303 305 321 343 295 284 286 294 296 308 302 302 301 305 303 301 295 298 295 274
133 131 130 122 122 104 82 66 65 62 72 83 90 72 67 58 347 268 261 267 273 275 291 299 310 319 307 305 287 294 297 302 303 305 306 301 301 298 298 295 294 300 296
141 134 124 128 123 116 92 77 66 63 65 71 83 92 54 40 9 252 244 266 283 297 297 310 307 279 292 307 304 304 299 302 310 313 307 302 295 303 308 300 297 300 305
138 134 128 115 126 110 91 69 59 54 46 50 67 72 88 37 350 308 302 292 298 303 299 291 276 290 284 307 323 316 315 313 321 318 317 315 310 305 304 304 302 303 305
142 138 120 121 143 109 91 70 62 53 53 48 43 45 38 57 348 343 323 314 306 309 302 294 293 296 309 309 308 322 315 321 311 313 321 320 324 323 323 321 309 307 304
146 171 173 146 123 109 96 78 60 63 55 31 27 25 20 28 26 360 340 329 325 318 303 301 307 306 316 313 323 314 314 325 331 331 316 323 331 325 329 345 349 311 310
152 212 348 75 85 96 94 74 66 57 42 31 12 15 4 15 12 8 348 330 326 323 318 317 319 321 320 319 323 327 335 331 348 342 333 336 343 333 335 340 349 354 337